Regional Weather Roundup
Issued by NWS

Home | Current Version | Previous Version | Graphics & Text | Print | Product List | Glossary On
Versions: 1 2 3 4 5 6 7 8 9 10 11 12 13 14 15 16 17 18 19 20 21 22 23 24 25 26 27
000
ASUS45 KCYS 290810
RWRWY

WYOMING REGIONAL WEATHER ROUNDUP
NATIONAL WEATHER SERVICE CHEYENNE WY
200 AM MDT FRI JUL 29 2016

NOTE:  "FAIR" INDICATES FEW OR NO CLOUDS BELOW 12,000 FEET
WITH NO SIGNIFICANT WEATHER AND/OR OBSTRUCTIONS TO VISIBILITY.

WYZ001-290900-
YELLOWSTONE NATIONAL PARK

CITY           SKY/WX    TMP DP  RH WIND       PRES   REMARKS
LK YELLOWSTONE   N/A     46  38  73 CALM      30.37F
W YELLOWSTONE  NOT AVBL

$$
WYZ002>013-054>058-071-098>099-290900-
NORTHERN WYOMING

CITY           SKY/WX    TMP DP  RH WIND       PRES   REMARKS
JACKSON        FAIR      57  39  51 N8        30.25S
CODY           FAIR      63  48  59 S5        30.20F
GREYBULL       FAIR      67  49  52 S5        30.11F
WORLAND        MOCLDY    64  49  57 CALM      30.13F
SHERIDAN       FAIR      56  50  80 SW3       30.14F
BUFFALO        FAIR      60  51  72 S7        30.20F
GILLETTE       FAIR      56  54  93 CALM      30.16F
HULETT         FAIR      54  52  94 S3        30.19F
NEWCASTLE      FAIR      59  54  82 CALM      30.20S

$$
WYZ014>020-022>026-101>103-290900-
CENTRAL WYOMING

CITY           SKY/WX    TMP DP  RH WIND       PRES   REMARKS
BIG PINEY      FAIR      50  28  42 NW7       30.31S
PINEDALE       FAIR      46  32  57 CALM      30.32S
DUBOIS         FAIR      52  41  66 CALM      30.34F
LANDER         FAIR      63  43  48 W10       30.22F
RIVERTON       FAIR      63  49  60 E6        30.23F
CASPER         FAIR      57  50  77 CALM      30.22F
DOUGLAS          N/A    N/A N/A N/A MISG      30.22F

$$
WYZ021-027>030-104>119-290900-
SOUTHERN WYOMING

CITY           SKY/WX    TMP DP  RH WIND       PRES   REMARKS
EVANSTON       FAIR      65  30  27 S3        30.29S
KEMMERER         N/A    N/A N/A N/A N9        30.32S
FORT BRIDGER   FAIR      60  26  27 W6        30.31S
ROCK SPRINGS   FAIR      61  43  51 E9        30.28R
DIXON          FAIR      59  40  50 SE3       30.23S
RAWLINS        FAIR      60  50  69 NE12      30.26F
SARATOGA       FAIR      54  46  76 CALM      30.28S
LARAMIE        FAIR      56  52  86 SE10      30.32F
CHEYENNE       MOCLDY    60  55  83 S10       30.29F
TORRINGTON     FAIR      59  56  89 E6        30.18R
PINE BLUFFS    FAIR      59  55  88 NW3       30.26F

$$




USA.gov is the U.S. government's official web portal to all federal, state and local government web resources and services.